BCS2665 EGLL-EBBR

Flight info

Callsign BCS2665
Flight time N/A
Altitude 23000
Route DET Q70 KOK
Aircraft B77L/H-SDE1E2E3FGHIJ2J3J4J5M1RWXY/LB1D1

Departure

Time 2026-05-06 13:56
Airport London Heathrow Airport (EGLL)

Arrival

Time N/A
Airport Brussels Airport (EBBR)
Time Latitude Longitude Altitude Speed Heading
2026-05-06 13:49 51.46116 -0.47266 92 ft 1 kts
2026-05-06 13:49 51.46101 -0.47266 92 ft 3 kts
2026-05-06 13:49 51.46091 -0.47266 91 ft 0 kts
2026-05-06 13:50 51.46093 -0.47266 91 ft 2 kts
2026-05-06 13:50 51.46124 -0.47265 92 ft 5 kts
2026-05-06 13:50 51.46159 -0.47264 93 ft 5 kts
2026-05-06 13:50 51.46195 -0.47266 93 ft 5 kts 356°
2026-05-06 13:51 51.46230 -0.47268 92 ft 5 kts 358°
2026-05-06 13:51 51.46267 -0.47270 90 ft 5 kts 358°
2026-05-06 13:51 51.46301 -0.47285 92 ft 5 kts 329°
2026-05-06 13:51 51.46326 -0.47355 94 ft 10 kts 289°
2026-05-06 13:52 51.46338 -0.47461 91 ft 10 kts 273°
2026-05-06 13:52 51.46336 -0.47570 91 ft 10 kts 264°
2026-05-06 13:52 51.46319 -0.47676 91 ft 10 kts 246°
2026-05-06 13:52 51.46286 -0.47772 95 ft 10 kts 240°
2026-05-06 13:53 51.46258 -0.47873 93 ft 11 kts 256°
2026-05-06 13:53 51.46252 -0.47996 92 ft 11 kts 268°
2026-05-06 13:53 51.46250 -0.48124 88 ft 12 kts 270°
2026-05-06 13:53 51.46252 -0.48278 88 ft 15 kts 270°
2026-05-06 13:54 51.46251 -0.48444 86 ft 15 kts 269°
2026-05-06 13:54 51.46261 -0.48608 91 ft 15 kts 289°
2026-05-06 13:54 51.46329 -0.48729 91 ft 15 kts 333°
2026-05-06 13:54 51.46431 -0.48749 93 ft 15 kts
2026-05-06 13:55 51.46478 -0.48622 94 ft 15 kts 88°
2026-05-06 13:55 51.46478 -0.48596 90 ft 0 kts 89°
2026-05-06 13:55 51.46478 -0.48590 90 ft 1 kts 89°
2026-05-06 13:55 51.46480 -0.48291 91 ft 71 kts 89°
2026-05-06 13:56 51.46486 -0.46891 96 ft 177 kts 89°
2026-05-06 13:56 51.46490 -0.44646 722 ft 209 kts 86°
2026-05-06 13:56 51.46560 -0.42394 2217 ft 200 kts 86°
2026-05-06 13:56 51.46338 -0.40580 2598 ft 227 kts 113°